FLOCK 4Y 7

导读 | 星芒AI

FLOCK 4Y 7 是由美国公司 Planet Labs 运营的地球观测卫星之一,属于其“Flock”系列。该卫星主要用于高分辨率光学成像,支持全球范围内的土地利用监测、环境研究和灾害评估等应用。FLOCK 4Y 7 搭载多光谱传感器,能够提供高精度的影像数据,助力农业、城市规划和资源管理等领域。该卫星于2017年发射,是Planet Labs构建其小型卫星星座计划的一部分,旨在实现对地球的高频次、高覆盖率的观测。

基本信息
目录编号:
55032
目录名称:
FLOCK 4Y 7
国际标识:
2023-001Z
轨道中心:
EARTH
卫星名称:
FLOCK 4Y 7
卫星全名:
--
卫星状态:
已陨落 最后检测时间 2025-10-16
发射日期:
2023-01-03 UTC
国别 :
美国 (US)
星等 :
--
轨道信息
数据来源 国际轨道数据
星历时间: 2025-10-16T07:34:48+0800
轨道信息已过期52天
半长轴: 6536.814km
偏心率: 0.0012159
轨道倾角: 97.334°
近地点辐角 259.025°
升交点赤经 6.148°
平近点角 100.968°
近地点: 150.73km
远地点: 166.628km
周期: 87.662分钟
每日圈数: 16.426823
详细信息
使用方式:
暂无